Location: Newark
(41.6500°N, 71.4833°W)
Time: 02:09:19
(UTC+00:00)

Transit 2A Rocket - Pass Details

Date: 30 January 2020
Orbit: 591 x 912 km, 66.7° (Epoch: 25 February)

Event Time Altitude Azimuth Distance (km) Brightness Sun altitude
Rises 17:39:23 0° 329° (NNW) 3,047 7.7 30.0°
Reaches altitude 10° 17:41:37 10° 328° (NNW) 2,174 7.1 29.9°
Maximum altitude 17:46:35 83° 243° (WSW) 761 5.6 29.7°
Drops below altitude 10° 17:52:02 10° 154° (SSE) 2,376 8.4 29.4°
Sets 17:54:34 0° 154° (SSE) 3,353 9.0 29.3°
